[[{"header":{"parameterUnit":"m.s-1","parameterCategory":1,"la1":30.2991,"la2":30.254,"lo1":-89.0895,"lo2":-89.0444,"dy":0.0017,"dx":0.0017,"nx":28,"ny":28,"refTime":"2024-07-12T03:00:00:Z","depth":0,"parameterNumber":2,"parameterNumberName":"U-component_of_WINDS"},"data":[0,0,0,0,0,0,0,0,0,0,0,0,0,0,0,0,0,0,0,0,0,0,0,0,0,0,0,0,0,0,0,0,0,0,0,0,0,0,0,0,0,0,0,0,0,0,0,0,0,0,0,0,0,0,0,0,0,0,2.4675,2.4676,0,2.4805,2.4807,2.4808,2.4795,2.4793,2.4791,2.4789,2.4925,2.493,2.4935,0,0,0,0,0,0,0,0,0,0,0,0,0,2.4416,2.4421,2.4675,2.4677,2.4678,2.4805,2.4807,2.4809,2.4796,2.4793,2.4791,2.4788,2.4923,2.4929,2.4936,0,0,0,0,0,0,0,0,0,0,0,0,0,2.4536,2.4423,2.4675,2.4687,2.4689,2.4805,2.4807,2.4809,2.4796,2.4793,2.479,2.4787,2.4921,2.4929,2.4937,2.5049,0,0,2.4962,2.4966,0,0,0,0,0,0,0,0,2.4529,2.4545,2.4684,2.4686,2.4689,2.4781,2.4765,2.4889,2.4797,2.4756,2.4789,2.4786,2.4879,2.4891,2.4922,2.5055,2.5061,2.4963,2.4968,2.4971,2.4974,0,0,0,0,0,0,0,2.4521,2.454,2.4727,2.4686,2.4689,2.4686,2.47,2.4789,2.4833,2.4759,2.4758,2.4774,2.488,2.4914,2.4925,2.5063,2.4962,2.497,2.4975,2.4978,2.5293,2.5296,0,0,0,0,0,0,2.4509,2.4533,2.4722,2.473,2.46,2.4693,2.4709,2.4755,2.4832,2.4841,2.4776,2.4773,2.4901,2.4915,2.493,2.5065,2.4971,2.4979,2.4984,2.5289,2.5293,2.5297,0,0,0,0,0,0,2.4504,2.4526,2.4717,2.4631,2.4656,2.4701,2.4753,2.4759,2.4792,2.4845,2.4853,2.4803,2.49,2.4918,2.5019,2.5069,2.4983,2.499,2.5285,2.529,2.5295,2.5336,0,0,0,0,0,0,2.4496,2.4524,2.4567,2.4633,2.466,2.4804,2.4756,2.4764,2.4806,2.4803,2.4872,2.488,2.4899,2.5006,2.5027,2.5079,2.4997,2.5281,2.5288,2.5294,2.533,2.5342,2.5352,0,0,0,0,0,2.4487,2.4574,2.4569,2.4592,2.4715,2.4807,2.4823,2.4841,2.4811,2.4854,2.4888,2.4878,2.506,2.5017,2.504,2.5095,2.5278,2.5286,2.5293,2.5326,2.534,2.5352,0,0,0,0,0,0,2.4515,2.4583,2.4579,2.4689,2.4742,2.4804,2.486,2.4856,2.4919,2.4913,2.4934,2.495,2.5051,2.5083,2.5034,2.5207,2.5165,2.5178,2.5182,2.5196,2.5206,2.5196,2.5003,0,0,0,0,0,2.4534,2.4602,2.4659,2.4751,2.4778,2.4814,2.4855,2.4865,2.4921,2.4943,2.4984,2.5039,2.5109,2.5154,2.5221,2.5335,2.5349,2.5384,2.5395,2.5404,2.5414,2.5476,2.5491,2.5322,2.5322,2.5322,0,0,2.4574,2.462,2.4662,2.4758,2.48,2.487,2.4833,2.491,2.4962,2.4955,2.5052,2.5084,2.5147,2.5254,2.5303,2.5284,2.5464,2.5413,2.542,2.5426,2.5485,2.5501,2.5515,2.5327,2.5326,2.5326,0,0,2.4683,2.4724,2.4805,2.4848,2.4911,2.4935,2.4954,2.5017,2.5038,2.5135,2.513,2.5193,2.5313,2.5358,2.5396,2.552,2.5513,2.5541,2.5597,2.5657,2.567,2.5682,2.5725,2.574,2.5552,2.5552,2.5552,0,2.4724,2.483,2.4848,2.4924,2.4966,2.4962,2.5044,2.5084,2.5167,2.5196,2.5173,2.5322,2.5364,2.5481,2.5511,2.5543,2.5565,2.5533,2.5666,2.5679,2.569,2.5731,2.5748,2.5555,2.5554,2.5554,2.5554,0,2.4878,2.4951,2.5009,2.5087,2.5136,2.5215,2.5244,2.5292,2.5297,2.5323,2.5421,2.5471,2.5548,2.5576,2.5583,2.5694,2.568,2.5662,2.562,2.5709,2.5748,2.5764,2.5559,2.5558,2.5557,2.5556,0,0,2.5009,2.5094,2.5115,2.515,2.5219,2.5277,2.5355,2.5429,2.5468,2.5526,2.5592,2.5692,2.5675,2.5719,2.573,2.5782,2.5876,2.5757,2.5759,2.5777,2.6,2.6013,2.6031,2.5872,2.5875,2.5877,2.5994,0,2.5123,2.5261,2.5279,2.5402,2.5469,2.5465,2.5533,2.5583,2.5609,2.5671,2.57,2.577,2.5743,2.5769,2.582,2.5853,2.5921,2.5845,2.5933,2.5936,2.5917,2.6052,2.6066,2.6174,2.601,2.6013,2.6015,0,2.5276,2.5336,2.5465,2.5523,2.5552,2.5613,2.5681,2.574,2.5796,2.5812,2.5859,2.5864,2.5945,2.59,2.6011,2.596,2.5997,2.6018,2.6023,2.6031,2.598,2.6063,2.6209,2.6224,2.6039,2.6037,2.6035,0,2.5357,2.547,2.5561,2.5591,2.5662,2.5705,2.5737,2.579,2.5832,2.5892,2.592,2.5989,2.6027,2.608,2.6103,2.6068,2.6212,2.617,2.6227,2.6226,2.6257,2.6255,2.641,2.6283,2.6282,2.6282,2.6282,0,2.5483,2.5562,2.5598,2.5654,2.5742,2.5761,2.5848,2.5878,2.5925,2.5987,2.5988,2.6047,2.6073,2.6136,2.6154,2.6243,2.626,2.6275,2.6278,2.6274,2.6272,2.6298,2.6291,2.6286,2.6285,2.6285,2.6284,0,2.5588,2.5616,2.5715,2.5773,2.579,2.5852,2.5902,2.5956,2.5981,2.6059,2.6079,2.6118,2.6192,2.6219,2.6309,2.6321,2.6424,2.6422,2.6404,2.6405,2.646,2.6454,2.6637,2.6662,2.6519,2.652,2.6521,0,2.5667,2.5727,2.5791,2.5832,2.5865,2.5931,2.5974,2.5995,2.604,2.6107,2.6154,2.6226,2.6285,2.6402,2.6439,2.6508,2.6507,2.6566,2.6517,2.651,2.6507,2.6502,2.6508,2.6575,2.6577,2.6578,2.6579,0,2.5802,2.5812,2.5874,2.594,2.5991,2.6045,2.6097,2.613,2.6159,2.6209,2.6283,2.6329,2.642,2.6492,2.6561,2.6594,2.6591,2.6594,2.6611,2.6606,2.6593,2.66,2.6428,2.659,2.6589,2.6588,2.6587,2.6587,2.5896,2.5949,2.6001,2.607,2.6111,2.6159,2.6212,2.6243,2.6305,2.6379,2.6388,2.6467,2.6521,2.6614,2.665,2.6713,2.6697,2.6721,2.6727,2.6733,2.6736,2.6584,2.6726,2.6725,2.6725,2.6725,2.6725,0,2.6031,2.6064,2.6127,2.6198,2.6252,2.6243,2.63,2.6345,2.6415,2.6465,2.6522,2.6607,2.6676,2.6718,2.6787,2.6829,2.6829,2.6847,2.6843,2.6851,2.6747,2.6725,2.6845,2.6845,2.6845,2.6845,2.6845,2.6845,2.6107,2.6195,2.6211,2.632,2.6353,2.643,2.6462,2.6507,2.6546,2.664,2.6697,2.6723,2.677,2.6843,2.6906,2.6916,2.6941,2.696,2.6969,2.6871,2.6858,2.6846,2.6826,2.6965,2.6965,2.7067,2.7068,2.7069]},{"header":{"parameterUnit":"m.s-1","parameterCategory":1,"la1":30.2991,"la2":30.254,"lo1":-89.0895,"lo2":-89.0444,"dy":0.0017,"dx":0.0017,"nx":28,"ny":28,"refTime":"2024-07-12T03:00:00:Z","depth":0,"parameterNumber":3,"parameterNumberName":"V-component_of_WINDS"},"data":[0,0,0,0,0,0,0,0,0,0,0,0,0,0,0,0,0,0,0,0,0,0,0,0,0,0,0,0,0,0,0,0,0,0,0,0,0,0,0,0,0,0,0,0,0,0,0,0,0,0,0,0,0,0,0,0,0,0,-0.9816,-0.9816,0,-0.9824,-0.9824,-0.9824,-0.9835,-0.9836,-0.9836,-0.9836,-0.9843,-0.9843,-0.9843,0,0,0,0,0,0,0,0,0,0,0,0,0,-0.9809,-0.9809,-0.9816,-0.9816,-0.9816,-0.9824,-0.9824,-0.9824,-0.9835,-0.9836,-0.9836,-0.9836,-0.9843,-0.9843,-0.9843,0,0,0,0,0,0,0,0,0,0,0,0,0,-0.9814,-0.9809,-0.9816,-0.9822,-0.9823,-0.9824,-0.9824,-0.9824,-0.9835,-0.9836,-0.9836,-0.9836,-0.9843,-0.9843,-0.9843,-0.9837,0,0,-0.9843,-0.9843,0,0,0,0,0,0,0,0,-0.9814,-0.9814,-0.9821,-0.9822,-0.9823,-0.9829,-0.9824,-0.9828,-0.9835,-0.9831,-0.9836,-0.9836,-0.9838,-0.9838,-0.9839,-0.9838,-0.9838,-0.9843,-0.9843,-0.9843,-0.9843,0,0,0,0,0,0,0,-0.9813,-0.9814,-0.9819,-0.9821,-0.9822,-0.9825,-0.9826,-0.9825,-0.9833,-0.9831,-0.9832,-0.9833,-0.9838,-0.9839,-0.984,-0.9838,-0.9843,-0.9843,-0.9843,-0.9843,-0.9832,-0.9832,0,0,0,0,0,0,-0.9812,-0.9814,-0.9819,-0.9819,-0.9819,-0.9825,-0.9826,-0.9827,-0.9833,-0.9834,-0.9832,-0.9833,-0.9839,-0.984,-0.984,-0.9833,-0.9843,-0.9843,-0.9843,-0.9833,-0.9832,-0.9832,0,0,0,0,0,0,-0.9812,-0.9812,-0.9818,-0.9817,-0.9818,-0.9825,-0.9825,-0.9827,-0.9827,-0.9834,-0.9835,-0.9832,-0.9839,-0.984,-0.9838,-0.9834,-0.9843,-0.9843,-0.9833,-0.9832,-0.9832,-0.9821,0,0,0,0,0,0,-0.9812,-0.9812,-0.981,-0.9816,-0.9818,-0.9816,-0.9825,-0.9827,-0.9828,-0.9829,-0.9834,-0.9835,-0.984,-0.9838,-0.9838,-0.9834,-0.9843,-0.9833,-0.9833,-0.9832,-0.9821,-0.982,-0.9818,0,0,0,0,0,-0.9811,-0.9806,-0.981,-0.9811,-0.9815,-0.9816,-0.9817,-0.9823,-0.9827,-0.9825,-0.9829,-0.9835,-0.9835,-0.9838,-0.9838,-0.9834,-0.9834,-0.9833,-0.9832,-0.9822,-0.982,-0.9819,0,0,0,0,0,0,-0.9799,-0.9807,-0.9811,-0.9808,-0.9812,-0.9818,-0.9816,-0.9821,-0.9822,-0.9823,-0.983,-0.9831,-0.9829,-0.9831,-0.9834,-0.9829,-0.9835,-0.9834,-0.9827,-0.9825,-0.9824,-0.9823,-0.9843,0,0,0,0,0,-0.9796,-0.9796,-0.9804,-0.98,-0.9802,-0.9808,-0.9809,-0.9813,-0.9817,-0.9818,-0.9822,-0.9825,-0.9825,-0.9826,-0.9827,-0.9822,-0.9823,-0.9819,-0.9818,-0.9817,-0.9816,-0.9814,-0.9812,-0.983,-0.983,-0.983,0,0,-0.9789,-0.9794,-0.9794,-0.9798,-0.9801,-0.9801,-0.9809,-0.9809,-0.9809,-0.9818,-0.9816,-0.9819,-0.9823,-0.982,-0.9819,-0.9822,-0.9811,-0.9816,-0.9815,-0.9815,-0.9813,-0.9811,-0.981,-0.9829,-0.9829,-0.9829,0,0,-0.9778,-0.9781,-0.9779,-0.9782,-0.9787,-0.9791,-0.9791,-0.9797,-0.9799,-0.9798,-0.9805,-0.9805,-0.9806,-0.9808,-0.9809,-0.9799,-0.9804,-0.9799,-0.9792,-0.9789,-0.9788,-0.9787,-0.9783,-0.9781,-0.9799,-0.9799,-0.9799,0,-0.9769,-0.9769,-0.9777,-0.9776,-0.9778,-0.9787,-0.9784,-0.9787,-0.9791,-0.9792,-0.9796,-0.9797,-0.98,-0.9798,-0.9795,-0.9796,-0.9796,-0.9798,-0.9788,-0.9787,-0.9785,-0.9782,-0.978,-0.9798,-0.9798,-0.9798,-0.9798,0,-0.9758,-0.9758,-0.9756,-0.9761,-0.9762,-0.976,-0.9767,-0.9768,-0.9772,-0.9777,-0.9775,-0.978,-0.9782,-0.9782,-0.9786,-0.978,-0.9781,-0.9786,-0.9793,-0.9783,-0.978,-0.9778,-0.9797,-0.9797,-0.9798,-0.9798,0,0,-0.9737,-0.9747,-0.9746,-0.9748,-0.9755,-0.9755,-0.9754,-0.9756,-0.9756,-0.9759,-0.9758,-0.9759,-0.9764,-0.9765,-0.977,-0.9768,-0.976,-0.9774,-0.9774,-0.977,-0.9753,-0.9749,-0.9747,-0.9764,-0.9763,-0.9763,-0.9753,0,-0.9726,-0.9725,-0.9732,-0.9729,-0.9729,-0.9738,-0.9737,-0.9741,-0.9745,-0.9746,-0.975,-0.9751,-0.9757,-0.9758,-0.9757,-0.9761,-0.9756,-0.9762,-0.9762,-0.9762,-0.976,-0.9745,-0.9741,-0.973,-0.9751,-0.9751,-0.9751,0,-0.9713,-0.9716,-0.9713,-0.9719,-0.972,-0.9719,-0.9722,-0.9722,-0.9727,-0.973,-0.9732,-0.9738,-0.9737,-0.9744,-0.9742,-0.9746,-0.9747,-0.9749,-0.9749,-0.9748,-0.9755,-0.9744,-0.9727,-0.9726,-0.9749,-0.9749,-0.9749,0,-0.9698,-0.9701,-0.9699,-0.9701,-0.9709,-0.9708,-0.9711,-0.9716,-0.9717,-0.972,-0.9721,-0.9723,-0.9724,-0.9726,-0.9732,-0.9736,-0.973,-0.9737,-0.9732,-0.9732,-0.973,-0.9729,-0.9712,-0.9731,-0.9731,-0.9731,-0.9731,0,-0.9684,-0.9681,-0.9693,-0.9692,-0.9689,-0.9698,-0.9695,-0.9699,-0.9703,-0.9703,-0.9711,-0.9711,-0.972,-0.972,-0.9725,-0.9723,-0.9724,-0.9726,-0.9727,-0.9725,-0.9725,-0.9725,-0.9725,-0.9731,-0.9731,-0.9731,-0.9731,0,-0.9666,-0.9674,-0.9673,-0.9681,-0.9682,-0.968,-0.9687,-0.9686,-0.9691,-0.9691,-0.9691,-0.9699,-0.97,-0.9707,-0.971,-0.9713,-0.9709,-0.9712,-0.9707,-0.9708,-0.9703,-0.9703,-0.9684,-0.9682,-0.9703,-0.9703,-0.9703,0,-0.9656,-0.9655,-0.9663,-0.9664,-0.9667,-0.9668,-0.9669,-0.9678,-0.9679,-0.9684,-0.9682,-0.9684,-0.9686,-0.9688,-0.9693,-0.9695,-0.9698,-0.9691,-0.9698,-0.9696,-0.9697,-0.9697,-0.9696,-0.9689,-0.9689,-0.9689,-0.9689,0,-0.9638,-0.9642,-0.9644,-0.9648,-0.9649,-0.9652,-0.9656,-0.9656,-0.9665,-0.9666,-0.9668,-0.9669,-0.9672,-0.9674,-0.9677,-0.968,-0.9686,-0.9687,-0.9686,-0.9683,-0.968,-0.9681,-0.9703,-0.9687,-0.9687,-0.9687,-0.9687,-0.9687,-0.9624,-0.9623,-0.9629,-0.9631,-0.9634,-0.9638,-0.9637,-0.9643,-0.9644,-0.9648,-0.9653,-0.9653,-0.9658,-0.9663,-0.9666,-0.9666,-0.967,-0.9668,-0.9668,-0.9667,-0.9665,-0.9681,-0.9667,-0.9667,-0.9667,-0.9667,-0.9667,0,-0.9606,-0.961,-0.9612,-0.9617,-0.9618,-0.9625,-0.9629,-0.963,-0.9631,-0.9635,-0.9637,-0.9639,-0.964,-0.9647,-0.9649,-0.9648,-0.9651,-0.9648,-0.9648,-0.9649,-0.9662,-0.9663,-0.9646,-0.9646,-0.9646,-0.9646,-0.9646,-0.9646,-0.9596,-0.9595,-0.96,-0.9601,-0.9605,-0.9606,-0.9608,-0.9611,-0.9615,-0.9616,-0.9618,-0.9622,-0.9627,-0.963,-0.9632,-0.9634,-0.9634,-0.9631,-0.9633,-0.9646,-0.9648,-0.965,-0.965,-0.9631,-0.9631,-0.9619,-0.9619,-0.9619]}]]